User: anonymous   Login
Location: Henham
(51.9333°N, 0.2500°E)
Time: 09:00:17
(UTC+00:00)
Language:

ARGOS - Orbit

View from above orbital plane
View from above orbital plane
View from above satellite
View from above satellite

Ground track
Ground track

The orbit data is extracted from the following two-line orbital elements,

1 25634U 99008A   19339.83077018 -.00000026 +00000-0 +75921-5 0  9993
2 25634 098.4911 021.9633 0011217 119.3195 240.9104 14.19363119075874
Epoch (UTC): 05 December 2019 19:56:18
Eccentricity: 0.0011217
inclination: 98.4911°
perigee height: 819 km
apogee height: 835 km
right ascension of ascending node: 21.9633°
argument of perigee: 119.3195°
revolutions per day: 14.19363119
mean anomaly at epoch: 240.9104°
orbit number at epoch: 7587

The dashed part of the orbit path shows where the satellite is in the earth's shadow,  

DLR